Date,TemperatureHighF,TemperatureAvgF,TemperatureLowF,DewpointHighF,DewpointAvgF,DewpointLowF,HumidityHigh,HumidityAvg,HumidityLow,PressureMaxIn,PressureMinIn,WindSpeedMaxMPH,WindSpeedAvgMPH,GustSpeedMaxMPH,PrecipitationSumIn
2013-1-1,35.2,16.2,15.3,28.0,-20.9,-99.9,80,49,65,30.05,29.84,18,-314,0,0.00
2013-1-2,24.9,18.8,10.6,22.0,14.0,6.0,92,81,71,30.26,30.00,27,5,0,0.00
2013-1-3,29.5,20.0,9.3,25.0,15.5,5.0,87,82,75,30.26,30.00,15,3,0,0.00
2013-1-4,36.3,32.2,28.3,26.0,23.5,21.0,81,71,58,30.01,29.89,23,8,0,0.01
2013-1-5,33.1,8.8,31.8,25.0,-66.1,-99.9,74,20,73,30.30,30.01,16,-726,0,0.00
2013-1-6,39.6,25.1,34.5,33.0,-11.6,-99.9,87,53,69,30.09,29.89,10,-323,0,0.00
2013-1-7,36.1,26.1,21.2,33.0,13.1,-99.9,88,75,68,30.41,30.06,13,-79,0,0.00
2013-1-8,39.9,30.5,25.2,25.0,22.0,20.0,84,71,55,30.34,30.20,12,4,0,0.00
2013-1-9,50.0,37.0,24.2,37.0,28.2,21.0,88,72,57,30.32,29.96,22,9,0,0.00
2013-1-10,41.8,34.1,32.3,31.0,16.5,-99.9,83,64,60,30.59,30.30,22,-90,0,0.00
2013-1-11,42.1,38.4,32.1,37.0,32.2,28.0,88,79,65,30.46,29.95,24,12,0,0.09
2013-1-12,51.7,45.5,40.7,47.0,42.4,37.0,93,89,84,30.03,29.98,15,8,0,0.00
2013-1-13,58.6,47.8,45.8,52.0,34.6,-99.9,93,78,78,29.99,29.78,23,-85,0,0.00
2013-1-14,53.4,29.1,30.8,49.0,-1.1,-99.9,89,56,63,30.38,29.75,29,-238,0,0.03
2013-1-15,34.8,30.8,28.7,24.0,21.6,20.0,78,69,56,30.41,30.21,11,3,0,0.00
2013-1-16,35.6,26.0,29.7,30.0,1.3,-99.9,90,63,60,30.20,29.78,11,-197,0,0.00
2013-1-17,36.4,26.8,19.0,30.0,18.1,-99.9,84,72,60,30.20,29.85,21,-4,0,0.00
2013-1-18,29.5,21.6,14.1,16.0,12.2,7.0,88,69,48,30.43,30.08,20,6,0,0.00
2013-1-19,50.1,41.8,29.7,30.0,24.6,17.0,59,51,38,30.07,29.62,14,6,0,0.00
2013-1-20,49.1,27.3,20.3,36.0,-0.6,-99.9,74,47,41,30.07,29.43,37,-146,0,0.04
2013-1-21,23.1,20.1,16.6,14.0,10.0,7.0,76,65,56,30.07,29.87,11,3,0,0.00
2013-1-22,15.9,12.3,8.9,7.0,-1.2,-6.0,73,56,39,30.19,29.90,21,8,0,0.00
2013-1-23,12.2,7.3,-0.9,10.0,1.1,-5.0,92,76,60,30.26,30.16,12,3,0,0.00
2013-1-24,14.0,6.2,-3.6,10.0,1.2,-8.0,85,80,70,30.53,30.14,15,4,0,0.01
2013-1-25,17.5,12.4,7.6,11.0,8.0,4.0,86,82,72,30.52,30.12,9,2,0,0.00
2013-1-26,22.3,12.9,1.5,17.0,8.5,-2.0,92,83,66,30.41,30.12,7,1,0,0.00
2013-1-27,27.3,20.5,14.3,17.0,14.6,11.0,90,79,61,30.58,30.41,9,2,0,0.04
2013-1-28,38.3,31.6,20.2,37.0,28.0,15.0,95,87,71,30.41,29.87,16,6,0,0.14
2013-1-29,51.0,40.5,32.2,49.0,39.1,31.0,100,95,91,30.07,29.80,16,6,0,0.24
2013-1-30,61.8,55.7,50.8,55.0,50.7,47.0,92,83,75,29.78,29.08,24,14,0,0.02
2013-1-31,55.3,33.3,23.3,52.0,23.7,12.0,91,69,49,29.69,29.00,31,13,0,0.29
2013-2-1,23.2,20.7,18.7,18.0,13.2,8.0,87,73,56,30.20,29.70,19,9,0,0.00
2013-2-2,21.6,18.6,15.2,17.0,11.3,6.0,85,74,60,30.20,30.00,13,4,0,0.00
2013-2-3,27.6,18.7,8.6,18.0,12.3,6.0,90,77,48,30.00,29.80,11,3,0,0.00
2013-2-4,23.6,20.8,17.8,15.0,11.3,8.0,84,67,52,29.95,29.86,27,6,0,0.00
2013-2-5,26.7,21.6,14.5,19.0,14.7,9.0,87,75,65,30.00,29.86,10,3,13,0.00
2013-2-6,27.9,23.9,14.5,25.0,15.8,8.0,89,72,51,30.41,29.89,20,6,0,0.00
2013-2-7,32.2,23.2,12.6,22.0,14.0,9.0,87,69,53,30.48,30.14,16,5,0,0.00
2013-2-8,36.1,30.4,20.7,31.0,25.7,18.0,94,83,58,30.13,29.80,23,5,0,0.00
2013-2-9,21.4,18.6,14.3,19.0,16.5,12.0,92,91,90,30.44,30.04,8,1,0,0.00
2013-2-10,36.1,21.4,1.9,24.0,14.3,-1.0,91,76,54,30.46,30.04,19,5,0,0.09
2013-2-11,44.6,34.1,35.6,38.0,14.6,-99.9,82,62,56,30.03,29.57,26,-103,0,0.10
2013-2-12,36.4,34.0,31.6,30.0,26.8,24.0,89,75,64,29.96,29.70,25,8,0,0.00
2013-2-13,37.5,32.0,22.5,26.0,23.5,18.0,85,72,56,29.92,29.73,9,2,0,0.00
2013-2-14,39.6,30.6,24.8,34.0,18.2,-99.9,92,75,63,29.94,29.80,16,-68,0,0.10
2013-2-15,39.1,32.7,27.3,34.0,16.2,-99.9,91,63,52,30.05,29.79,18,-68,0,0.02
2013-2-16,28.3,24.2,19.9,20.0,16.5,12.0,81,72,61,30.06,29.94,12,3,0,0.00
2013-2-17,21.8,16.2,12.7,14.0,10.1,4.0,88,77,59,30.17,29.90,29,8,0,0.00
2013-2-18,30.3,21.0,12.2,18.0,13.1,9.0,88,73,57,30.32,29.99,16,5,0,0.02
2013-2-19,38.5,29.0,26.9,34.0,9.3,-99.9,90,63,57,29.98,29.57,20,-118,0,0.04
2013-2-20,26.7,23.5,20.8,21.0,14.8,12.0,87,70,59,30.04,29.75,29,11,0,0.00
2013-2-21,21.3,18.1,14.2,17.0,13.6,11.0,89,82,74,30.44,30.02,19,8,0,0.00
2013-2-22,36.1,27.2,16.8,28.0,21.2,14.0,90,79,65,30.42,30.06,21,7,0,0.00
2013-2-23,40.2,35.6,32.6,34.0,30.3,26.0,90,81,75,30.06,29.87,22,7,0,0.04
2013-2-24,33.4,24.1,30.7,28.0,-4.7,-99.9,88,59,71,30.04,29.85,15,-238,0,0.00
2013-2-25,39.6,34.2,29.0,30.0,27.3,24.0,88,76,55,30.25,30.04,15,5,0,0.00
2013-2-26,43.4,34.2,24.4,32.0,27.0,22.0,92,76,55,30.25,29.90,15,6,0,0.02
2013-2-27,38.2,34.5,32.7,36.0,32.5,31.0,94,92,90,29.88,29.56,15,3,0,0.89
2013-2-28,39.7,35.8,33.6,34.0,32.5,31.0,99,88,73,29.70,29.54,11,4,0,0.10
2013-3-1,34.0,30.6,27.0,32.0,27.5,22.0,94,88,79,29.91,29.70,14,7,0,0.02
2013-3-2,27.5,25.2,24.0,25.0,22.1,20.0,92,88,81,29.94,29.86,13,6,0,0.00
2013-3-3,25.2,23.5,21.6,22.0,19.3,17.0,90,84,71,29.89,29.85,14,6,0,0.00
2013-3-4,30.1,26.4,22.7,23.0,19.9,17.0,87,76,67,30.03,29.89,19,10,0,0.00
2013-3-5,31.1,25.8,23.1,24.0,14.7,-99.9,88,75,75,30.10,29.99,13,-59,2,0.02
2013-3-6,40.8,33.4,20.9,32.0,27.6,18.0,91,80,66,30.14,29.98,11,4,0,0.00
2013-3-7,37.7,31.4,31.9,32.0,15.7,-99.9,87,69,67,30.27,30.13,15,-94,0,0.00
2013-3-8,39.6,32.8,25.6,28.0,24.2,21.0,91,72,51,30.39,30.24,20,6,0,0.02
2013-3-9,49.0,36.3,25.4,33.0,26.6,21.0,95,70,44,30.42,30.25,10,3,0,0.00
2013-3-10,58.6,46.8,32.6,32.0,29.0,26.0,83,52,33,30.25,30.01,25,11,0,0.00
2013-3-11,54.8,51.3,48.3,45.0,32.3,27.0,73,49,42,30.02,29.71,32,15,0,0.00
2013-3-12,53.9,42.7,35.7,48.0,36.4,28.0,91,78,70,29.90,29.70,19,7,11,0.34
2013-3-13,39.4,33.7,25.2,31.0,24.8,17.0,89,71,51,29.93,29.82,16,6,0,0.01
2013-3-14,31.9,25.9,19.6,20.0,12.7,7.0,87,59,36,30.05,29.92,36,14,0,0.00
2013-3-15,38.2,31.8,24.9,32.0,23.3,14.0,90,71,56,30.04,29.71,19,7,0,0.01
2013-3-16,31.2,26.0,19.6,20.0,17.2,14.0,81,70,61,29.99,29.86,13,4,0,0.00
2013-3-17,29.2,24.6,18.9,21.0,15.9,11.0,89,71,51,30.36,29.98,20,4,0,0.00
2013-3-18,35.4,25.6,16.9,28.0,18.1,11.0,93,76,43,30.37,29.82,22,8,0,0.00
2013-3-19,38.2,32.9,27.1,35.0,27.7,19.0,93,82,59,29.84,29.69,26,8,0,0.16
2013-3-20,35.8,29.1,24.5,23.0,19.8,16.0,81,69,44,29.84,29.79,19,7,0,0.00
2013-3-21,31.9,26.7,21.1,25.0,18.2,13.0,90,71,48,29.83,29.72,13,4,0,0.00
2013-3-22,32.5,28.8,25.1,27.0,24.7,23.0,91,84,73,29.90,29.72,20,8,0,0.03
2013-3-23,37.3,32.9,29.5,27.0,24.9,22.0,89,73,57,30.00,29.89,21,8,0,0.01
2013-3-24,38.5,33.0,27.4,29.0,24.1,21.0,87,70,53,29.99,29.75,11,4,0,0.00
2013-3-25,41.1,35.4,31.2,30.0,26.5,24.0,80,70,57,29.75,29.61,14,4,0,0.00
2013-3-26,44.9,37.5,31.2,34.0,28.7,25.0,92,72,51,29.92,29.70,12,3,0,0.00
2013-3-27,46.4,37.4,33.0,36.0,28.6,-99.9,91,73,55,30.04,29.89,16,7,19,0.04
2013-3-28,45.5,39.0,33.9,35.0,31.6,27.0,91,76,53,30.19,30.02,16,6,0,0.00
2013-3-29,48.8,41.3,37.2,34.0,31.6,27.0,83,70,48,30.19,30.11,16,5,0,0.00
2013-3-30,53.1,41.5,32.5,30.0,26.7,23.0,78,58,37,30.19,30.06,13,4,0,0.00
2013-3-31,55.3,42.8,35.6,42.0,33.5,24.0,93,72,42,30.06,29.63,21,9,0,0.11
2013-4-1,43.9,36.6,28.1,41.0,27.6,15.0,93,72,41,29.94,29.56,27,8,0,0.06
2013-4-2,32.2,28.7,23.8,26.0,21.4,17.0,88,74,57,30.10,29.93,20,8,0,0.01
2013-4-3,36.4,31.5,27.6,22.0,17.7,13.0,70,57,41,30.37,30.09,22,9,0,0.00
2013-4-4,58.0,38.6,25.2,26.0,20.8,17.0,75,52,23,30.36,29.93,11,4,0,0.00
2013-4-5,42.8,37.5,31.5,30.0,24.4,20.0,72,60,49,30.14,29.87,24,8,0,0.00
2013-4-6,45.1,36.7,25.9,23.0,18.5,15.0,72,50,32,30.34,30.07,11,4,0,0.00
2013-4-7,72.5,53.9,44.0,46.0,32.8,19.0,69,46,32,30.07,29.71,27,13,0,0.00
2013-4-8,58.8,48.9,40.8,45.0,37.3,34.0,77,66,48,30.12,29.76,11,4,0,0.01
2013-4-9,61.4,52.0,44.7,50.0,43.8,40.0,94,75,56,30.10,29.74,25,6,0,0.47
2013-4-10,47.1,41.8,39.8,46.0,37.4,-99.9,95,92,92,30.06,29.87,13,-27,8,0.30
2013-4-11,40.1,35.5,32.6,38.0,31.5,26.0,96,86,66,30.16,29.96,18,5,4,0.19
2013-4-12,49.6,41.2,34.0,46.0,37.7,32.0,95,88,75,29.98,29.58,15,8,0,0.60
2013-4-13,46.9,42.7,40.5,38.0,34.8,32.0,82,74,61,29.93,29.77,16,4,0,0.00
2013-4-14,45.3,40.2,34.4,34.0,29.6,27.0,90,67,53,30.20,29.93,11,4,0,0.03
2013-4-15,69.9,52.1,33.8,48.0,39.0,28.0,81,63,44,30.20,30.03,24,9,0,0.00
2013-4-16,63.9,55.8,44.8,58.0,48.9,34.0,93,78,64,30.22,29.94,31,11,0,0.21
2013-4-17,53.4,46.1,37.2,38.0,33.6,30.0,84,63,43,30.34,30.22,13,3,0,0.00
2013-4-18,69.4,56.9,42.0,57.0,47.0,34.0,85,70,53,30.25,29.75,37,14,0,0.04
2013-4-19,72.3,58.6,42.9,60.0,50.3,32.0,85,74,62,29.76,29.36,35,14,0,0.08
2013-4-20,43.5,40.1,33.4,32.0,26.5,20.0,73,59,45,30.40,29.73,25,9,0,0.00
2013-4-21,43.8,36.2,28.9,27.0,21.7,16.0,76,57,37,30.67,30.41,12,4,0,0.00
2013-4-22,58.2,45.3,29.7,30.0,26.2,21.0,78,51,29,30.62,30.38,19,7,0,0.00
2013-4-23,60.4,50.1,38.8,38.0,32.7,26.0,66,52,40,30.38,29.98,20,9,0,0.00
2013-4-24,67.9,54.4,40.6,54.0,44.0,35.0,86,69,54,29.97,29.60,24,12,0,0.08
2013-4-25,57.1,45.6,36.7,39.0,32.0,28.0,85,62,33,30.30,29.98,14,6,0,0.04
2013-4-26,53.4,45.1,37.7,39.0,33.8,30.0,91,67,43,30.46,30.30,13,3,0,0.00
2013-4-27,70.3,52.0,33.8,41.0,36.1,31.0,92,60,29,30.45,30.23,20,2,0,0.00
2013-4-28,73.5,59.4,45.6,48.0,40.2,35.0,86,52,26,30.23,30.02,19,9,0,0.11
2013-4-29,60.2,55.4,50.4,52.0,48.9,45.0,92,79,69,30.07,30.00,23,10,0,0.08
2013-4-30,68.9,60.9,54.6,55.0,52.0,50.0,87,73,56,30.22,30.05,23,10,0,0.01
2013-5-1,76.3,64.9,56.0,51.0,41.8,34.0,76,47,22,30.36,30.22,22,7,0,0.00
2013-5-2,77.8,65.0,52.6,45.0,40.6,36.0,58,42,27,30.41,30.25,12,6,0,0.00
2013-5-3,75.8,64.8,51.5,47.0,44.6,41.0,75,50,34,30.30,30.20,14,5,0,0.00
2013-5-4,74.2,62.8,50.0,46.0,41.4,38.0,66,47,32,30.29,30.14,16,5,0,0.00
2013-5-5,77.6,63.4,47.0,48.0,44.3,41.0,86,53,30,30.20,30.06,12,3,0,0.00
2013-5-6,76.7,63.5,48.8,47.0,39.7,33.0,69,44,22,30.16,30.00,16,5,0,0.00
2013-5-7,79.8,66.6,53.8,55.0,51.5,47.0,84,60,36,30.10,29.98,9,4,0,0.00
2013-5-8,68.7,62.5,55.5,62.0,56.4,51.0,92,81,67,30.04,29.89,11,3,0,0.04
2013-5-9,71.1,61.6,52.6,59.0,55.4,51.0,94,81,59,29.93,29.86,12,4,0,0.00
2013-5-10,72.4,62.0,52.5,60.0,55.6,51.0,95,81,57,29.94,29.71,19,6,0,0.22
2013-5-11,60.5,56.9,48.9,58.0,51.2,44.0,94,82,65,29.75,29.64,12,5,0,0.26
2013-5-12,53.0,46.9,37.4,45.0,35.3,28.0,88,66,40,29.90,29.66,27,8,0,0.06
2013-5-13,50.8,42.9,37.7,34.0,31.2,29.0,80,64,45,30.11,29.89,19,8,0,0.00
2013-5-14,59.2,46.9,34.2,38.0,32.1,30.0,89,60,34,30.15,29.98,12,3,0,0.00
2013-5-15,81.2,58.6,43.6,58.0,43.9,31.0,84,60,40,29.98,29.50,30,9,0,0.06
2013-5-16,76.3,64.1,51.5,47.0,43.8,35.0,78,51,28,29.97,29.70,25,6,0,0.00
2013-5-17,66.0,55.1,41.2,44.0,40.4,34.0,91,61,32,30.21,29.98,10,2,0,0.00
2013-5-18,71.4,57.6,41.6,51.0,45.2,39.0,93,66,42,30.26,30.13,10,3,0,0.00
2013-5-19,74.1,64.6,57.4,61.0,56.4,51.0,83,75,63,30.15,29.99,26,10,0,0.00
2013-5-20,85.1,72.9,59.6,68.0,62.5,57.0,91,71,50,30.03,29.82,8,3,0,0.00
2013-5-21,84.5,71.8,63.6,71.0,65.0,60.0,94,80,59,29.88,29.71,20,3,6,0.28
2013-5-22,85.7,73.0,62.4,71.0,65.1,57.0,96,78,45,29.77,29.62,12,3,0,0.01
2013-5-23,77.8,67.5,47.1,66.0,59.9,45.0,92,78,57,29.82,29.67,11,5,0,0.27
2013-5-24,49.2,43.2,39.2,45.0,39.8,37.0,94,88,69,30.15,29.83,20,8,0,0.17
2013-5-25,57.2,49.5,42.2,40.0,36.9,34.0,81,63,44,30.18,30.10,28,10,0,0.00
2013-5-26,62.2,53.1,44.3,40.0,36.5,31.0,81,56,33,30.18,30.07,24,8,0,0.00
2013-5-27,70.6,58.0,45.8,42.0,37.2,32.0,71,49,26,30.25,30.12,14,4,0,0.00
2013-5-28,61.8,55.8,50.1,57.0,50.3,42.0,95,82,66,30.15,29.94,19,7,0,0.63
2013-5-29,83.0,71.0,58.5,70.0,62.9,57.0,96,78,52,29.99,29.89,16,4,0,0.62
2013-5-30,90.8,76.7,61.8,69.0,64.1,60.0,95,68,39,30.08,29.99,12,2,0,0.00
2013-5-31,93.1,78.8,64.6,71.0,65.2,62.0,92,67,37,30.05,29.88,11,2,0,0.00
2013-6-1,90.6,76.9,66.0,69.0,66.6,63.0,90,72,48,29.93,29.74,18,4,0,0.00
2013-6-2,79.2,71.5,58.2,68.0,63.2,52.0,92,76,49,29.83,29.66,18,6,0,0.17
2013-6-3,62.9,56.5,51.1,52.0,45.8,42.0,83,68,50,29.99,29.84,15,6,0,0.00
2013-6-4,66.3,57.1,47.6,46.0,41.6,34.0,85,60,31,30.14,29.99,18,5,0,0.00
2013-6-5,69.8,58.7,51.4,51.0,44.9,41.0,75,61,44,30.20,30.07,11,3,0,0.00
2013-6-6,58.0,56.0,53.9,56.0,52.1,45.0,96,87,63,30.08,29.84,10,4,0,2.03
2013-6-7,64.2,60.1,56.2,62.0,59.0,55.0,96,95,92,29.84,29.76,7,3,0,0.16
2013-6-8,64.0,59.6,56.2,61.0,57.3,55.0,97,92,82,30.05,29.76,10,3,0,0.03
2013-6-9,76.6,65.2,54.7,59.0,55.8,53.0,94,74,48,30.17,30.05,8,2,0,0.00
2013-6-10,67.8,63.2,59.1,64.0,60.0,56.0,96,89,77,30.11,29.70,12,6,0,0.27
2013-6-11,66.7,64.1,58.9,64.0,60.6,54.0,96,89,76,29.79,29.61,20,7,0,0.53
2013-6-12,76.3,64.7,54.2,59.0,54.9,52.0,93,73,48,29.91,29.77,11,3,0,0.00
2013-6-13,64.4,60.2,56.5,59.0,57.4,55.0,95,90,79,29.77,29.50,15,5,0,1.94
2013-6-14,73.3,63.3,53.8,59.0,56.2,52.0,96,79,58,29.93,29.74,14,6,0,0.00
2013-6-15,75.9,65.8,55.1,58.0,53.2,46.0,92,67,39,30.02,29.92,11,4,0,0.00
2013-6-16,74.1,65.9,60.4,67.0,60.2,54.0,93,82,71,29.92,29.67,11,4,0,0.26
2013-6-17,79.1,69.1,61.1,65.0,61.6,58.0,91,78,53,29.90,29.80,14,3,0,0.07
2013-6-18,67.5,61.5,54.7,58.0,52.2,46.0,93,74,49,30.00,29.86,14,4,0,0.01
2013-6-19,67.5,59.0,50.0,50.0,45.0,40.0,91,63,37,30.18,30.00,11,3,0,0.00
2013-6-20,78.3,61.3,44.3,55.0,46.8,41.0,94,63,35,30.24,30.18,10,2,0,0.00
2013-6-21,84.3,66.8,49.4,60.0,53.2,46.0,92,65,35,30.25,30.14,9,2,0,0.00
2013-6-22,89.0,74.4,60.6,74.0,65.9,57.0,92,77,45,30.15,29.97,8,2,0,0.02
2013-6-23,90.3,76.7,68.7,75.0,70.1,66.0,92,81,56,30.03,29.96,10,4,0,1.32
2013-6-24,91.0,79.5,67.0,72.0,67.7,64.0,94,69,47,29.99,29.90,11,3,0,0.00
2013-6-25,84.2,76.7,68.0,72.0,67.2,64.0,90,73,60,29.91,29.75,12,4,0,0.00
2013-6-26,85.8,76.3,70.3,72.0,67.6,65.0,87,75,57,29.79,29.74,10,3,0,0.00
2013-6-27,80.8,73.1,64.9,72.0,68.0,63.0,95,84,70,29.78,29.58,9,2,0,0.04
2013-6-28,68.5,65.0,61.9,66.0,63.2,60.0,96,93,85,29.57,29.47,9,3,0,0.56
2013-6-29,76.7,67.8,61.9,66.0,63.1,61.0,96,86,62,29.67,29.48,9,2,0,0.01
2013-6-30,79.3,70.7,63.8,67.0,64.1,62.0,95,80,62,29.90,29.66,11,3,0,0.00
2013-7-1,67.9,65.8,62.1,65.0,63.3,61.0,95,91,84,30.00,29.88,9,4,0,0.23
2013-7-2,81.8,67.8,61.3,73.0,64.7,60.0,96,90,74,30.08,29.99,9,2,0,0.06
2013-7-3,87.3,74.0,65.2,75.0,69.1,64.0,97,86,61,30.12,30.06,14,3,0,1.43
2013-7-4,86.7,76.4,69.4,75.0,71.2,68.0,96,85,59,30.14,30.06,7,2,0,0.07
2013-7-5,86.7,76.2,69.1,76.0,71.6,68.0,96,86,64,30.11,30.01,10,2,0,0.24
2013-7-6,89.7,76.5,69.5,72.0,68.9,66.0,94,79,50,30.11,29.99,7,1,0,0.00
2013-7-7,86.3,78.0,70.3,74.0,70.2,66.0,95,78,59,30.02,29.89,11,4,0,0.13
2013-7-8,83.8,73.7,68.3,74.0,68.9,65.0,95,85,68,30.02,29.94,15,2,0,0.91
2013-7-9,85.4,74.6,68.5,73.0,70.3,67.0,96,87,62,30.01,29.88,8,2,0,0.13
2013-7-10,89.1,78.5,71.6,75.0,71.1,64.0,93,79,61,29.88,29.68,14,5,0,0.10
2013-7-11,77.6,70.7,63.9,65.0,61.6,58.0,91,73,57,29.99,29.77,12,5,0,0.00
2013-7-12,77.2,68.3,61.2,66.0,61.7,60.0,95,81,61,30.15,29.99,12,2,0,0.00
2013-7-13,79.3,71.6,62.7,71.0,66.3,61.0,95,83,73,30.22,30.13,9,2,0,0.00
2013-7-14,92.3,78.9,66.7,75.0,70.1,65.0,96,76,52,30.28,30.20,9,2,0,0.00
2013-7-15,90.2,79.5,71.7,75.0,70.6,66.0,92,76,51,30.26,30.19,10,2,0,0.00
2013-7-16,91.8,80.2,69.6,71.0,68.5,65.0,86,69,49,30.25,30.16,9,3,0,0.00
2013-7-17,96.1,81.5,69.4,80.0,73.0,66.0,93,77,52,30.20,30.02,11,2,0,0.14
2013-7-18,90.8,80.5,74.5,78.0,74.7,71.0,92,83,61,30.05,29.90,8,2,0,0.37
2013-7-19,94.4,83.3,72.0,77.0,72.7,66.0,90,72,52,29.91,29.68,24,4,0,0.02
2013-7-20,78.1,72.2,68.4,70.0,67.8,65.0,95,86,70,29.85,29.68,16,3,0,0.43
2013-7-21,75.6,69.2,63.1,66.0,61.4,58.0,94,78,56,29.99,29.85,9,2,0,0.00
2013-7-22,81.0,70.2,60.1,68.0,63.4,58.0,94,80,59,29.98,29.76,8,2,0,0.01
2013-7-23,86.0,74.0,66.6,71.0,67.3,59.0,96,81,52,29.75,29.57,19,3,0,0.11
2013-7-24,68.7,62.7,54.1,59.0,53.8,49.0,88,73,57,30.02,29.65,15,6,0,0.02
2013-7-25,73.3,62.4,50.1,57.0,53.4,48.0,95,75,53,30.11,30.03,11,2,0,0.01
2013-7-26,77.3,65.5,53.1,60.0,55.9,51.0,93,74,50,30.10,30.00,11,2,0,0.00
2013-7-27,80.9,68.2,57.7,70.0,62.8,55.0,94,84,63,30.00,29.83,12,4,0,0.00
2013-7-28,75.2,68.5,61.1,68.0,64.2,59.0,95,86,69,29.96,29.80,12,4,0,0.00
2013-7-29,72.6,64.3,57.4,60.0,57.8,56.0,95,81,56,30.11,29.96,8,2,0,0.00
2013-7-30,75.8,66.4,58.5,62.0,58.6,55.0,91,77,58,30.18,30.10,10,3,0,0.00
2013-7-31,79.7,68.7,56.6,64.0,60.3,55.0,95,76,52,30.13,29.92,12,3,0,0.00
2013-8-1,76.6,69.6,65.8,69.0,63.6,61.0,94,81,64,29.91,29.75,15,5,14,0.00
2013-8-2,75.2,67.9,61.2,65.0,61.6,59.0,94,81,61,29.87,29.81,9,2,0,0.00
2013-8-3,76.9,68.3,61.7,63.0,59.4,54.0,95,75,47,29.89,29.79,13,4,0,0.00
2013-8-4,70.6,64.2,58.4,61.0,55.9,53.0,90,75,56,30.01,29.88,19,6,0,0.00
2013-8-5,75.6,63.6,53.7,59.0,54.2,51.0,92,73,46,30.09,30.01,8,3,0,0.00
2013-8-6,79.6,66.8,54.6,62.0,57.3,53.0,95,74,46,30.04,29.98,11,4,0,0.00
2013-8-7,76.8,71.3,64.4,68.0,64.5,60.0,87,79,70,29.99,29.87,20,10,0,0.00
2013-8-8,87.0,73.7,67.0,72.0,68.3,65.0,95,84,61,29.94,29.88,11,3,0,0.00
2013-8-9,75.8,69.9,64.3,70.0,67.5,61.0,96,92,78,29.89,29.82,10,2,0,0.01
2013-8-10,71.9,66.2,56.6,61.0,56.8,49.0,91,73,48,30.07,29.89,14,5,0,0.00
2013-8-11,76.5,64.1,52.3,61.0,55.7,51.0,95,76,48,30.11,30.02,8,2,0,0.00
2013-8-12,79.5,69.4,60.3,67.0,61.6,58.0,93,78,52,30.03,29.83,5,1,0,0.00
2013-8-13,73.0,66.8,59.7,67.0,60.8,50.0,95,82,62,29.83,29.70,22,5,0,0.00
2013-8-14,68.0,60.1,54.9,57.0,51.6,49.0,93,74,52,30.04,29.80,18,7,0,0.00
2013-8-15,75.8,62.9,52.1,58.0,52.4,49.0,89,71,45,30.12,30.04,12,3,0,0.00
2013-8-16,79.3,66.1,53.8,60.0,54.9,51.0,92,70,42,30.19,30.09,10,2,0,0.00
2013-8-17,81.2,67.0,53.3,63.0,58.1,51.0,95,75,47,30.28,30.19,6,1,0,0.00
2013-8-18,79.3,68.0,59.1,65.0,60.8,57.0,94,79,55,30.23,30.08,8,2,0,0.00
2013-8-19,84.0,71.9,62.2,66.0,62.4,59.0,92,74,43,30.09,29.99,8,2,0,0.00
2013-8-20,86.4,72.5,60.0,66.0,62.1,57.0,92,72,44,30.10,30.02,11,2,0,0.00
2013-8-21,87.4,74.0,59.9,68.0,63.9,58.0,94,73,48,30.13,29.99,9,2,0,0.00
2013-8-22,87.4,72.8,62.9,72.0,66.8,61.0,94,83,56,30.00,29.83,23,2,0,0.00
2013-8-23,72.2,65.6,57.2,63.0,58.3,54.0,94,78,57,30.18,29.94,12,3,0,0.00
2013-8-24,75.6,64.5,54.3,60.0,54.6,51.0,94,73,44,30.34,30.19,7,2,0,0.00
2013-8-25,84.2,68.4,52.2,65.0,57.8,51.0,95,72,40,30.33,30.11,10,2,0,0.00
2013-8-26,77.2,70.2,65.8,72.0,66.2,61.0,95,87,72,30.11,29.89,11,2,0,0.00
2013-8-27,83.7,73.4,67.7,73.0,69.6,67.0,97,88,67,29.91,29.84,9,2,0,0.10
2013-8-28,83.6,74.1,67.3,74.0,69.2,66.0,96,85,69,29.91,29.82,11,2,0,0.07
2013-8-29,83.1,72.7,65.6,72.0,67.6,63.0,96,85,64,30.00,29.91,10,3,0,0.00
2013-8-30,87.5,74.0,61.9,72.0,66.5,61.0,96,79,49,29.98,29.74,7,2,0,0.02
2013-8-31,82.3,74.3,69.7,74.0,70.1,67.0,94,87,73,29.82,29.69,11,3,0,0.04
2013-9-1,83.1,73.6,67.2,72.0,68.6,66.0,96,85,63,29.83,29.71,8,2,0,0.01
2013-9-2,84.8,73.0,66.6,75.0,68.3,61.0,95,86,66,29.76,29.61,15,4,0,0.00
2013-9-3,67.8,64.4,61.2,60.0,57.9,56.0,87,80,68,29.91,29.75,12,4,0,0.00
2013-9-4,79.8,68.1,55.2,62.0,56.4,53.0,92,69,41,29.96,29.91,13,4,0,0.00
2013-9-5,67.1,60.9,51.3,62.0,49.7,42.0,87,68,46,30.19,29.93,19,5,0,0.00
2013-9-6,72.2,58.3,46.0,52.0,46.7,43.0,88,68,41,30.26,30.08,8,2,0,0.00
2013-9-7,65.6,59.2,50.4,62.0,55.4,48.0,94,87,76,30.08,29.85,8,1,0,0.00
2013-9-8,65.3,60.7,48.8,63.0,51.7,43.0,96,75,46,30.10,29.82,19,4,0,0.00
2013-9-9,74.1,60.3,46.2,60.0,51.6,44.0,94,75,54,30.15,29.96,16,5,0,0.00
2013-9-10,92.4,68.4,65.0,78.0,49.7,-99.9,90,68,59,30.01,29.89,16,-111,0,0.00
2013-9-11,94.9,82.0,72.5,77.0,72.4,66.0,92,75,50,30.00,29.86,20,4,0,0.00
2013-9-12,76.7,70.0,62.0,70.0,66.0,60.0,93,87,75,29.88,29.68,10,2,0,0.00
2013-9-13,61.8,55.6,51.7,60.0,53.0,49.0,93,90,85,29.98,29.69,18,6,0,0.00
2013-9-14,61.5,46.0,45.8,49.0,26.6,-99.9,91,68,56,30.12,29.97,14,-133,0,0.00
2013-9-15,70.2,56.2,43.1,55.0,48.7,41.0,95,78,52,30.16,30.03,13,2,0,0.00
2013-9-16,55.4,51.5,46.1,53.0,48.8,44.0,94,90,75,30.37,30.05,12,3,0,0.00
2013-9-17,65.2,51.2,38.2,48.0,42.5,37.0,95,76,43,30.49,30.30,6,1,0,0.00
2013-9-18,73.3,57.5,44.7,54.0,47.4,43.0,94,72,38,30.30,30.09,9,3,0,0.00
2013-9-19,77.3,62.1,47.6,58.0,52.7,45.0,93,74,45,30.11,30.00,8,2,0,0.00
2013-9-20,79.9,66.9,53.6,64.0,58.5,52.0,95,76,53,30.00,29.78,18,6,0,0.00
2013-9-21,69.3,63.9,55.6,63.0,59.6,54.0,95,86,73,29.78,29.59,19,8,0,0.00
2013-9-22,55.3,52.4,49.5,53.0,46.2,42.0,93,80,62,30.00,29.69,19,6,0,0.00
2013-9-23,56.5,50.7,42.7,46.0,42.7,40.0,91,75,60,30.13,29.99,14,5,0,0.00
2013-9-24,62.7,51.6,42.5,49.0,43.6,40.0,93,76,49,30.12,30.00,13,3,11,0.00
2013-9-25,69.6,54.1,42.1,54.0,45.9,40.0,92,76,48,30.00,29.94,9,2,0,0.00
2013-9-26,70.1,55.4,43.4,56.0,48.8,41.0,95,80,56,30.13,29.99,11,2,0,0.00
2013-9-27,70.6,56.6,45.9,57.0,51.1,44.0,95,83,59,30.25,30.13,9,2,0,0.00
2013-9-28,71.4,58.4,48.5,57.0,51.9,47.0,96,81,58,30.30,30.18,12,4,0,0.00
2013-9-29,73.0,61.2,50.6,55.0,52.3,49.0,94,74,51,30.18,29.99,19,6,0,0.00
2013-9-30,77.5,63.0,52.5,60.0,55.4,50.0,91,78,53,30.01,29.92,10,2,0,0.00
2013-10-1,76.6,65.7,58.4,62.0,58.7,55.0,94,79,52,30.00,29.89,12,2,0,0.00
2013-10-2,77.1,64.9,55.2,64.0,57.8,53.0,94,79,50,30.05,29.89,12,3,0,0.00
2013-10-3,74.6,61.5,49.7,58.0,52.1,46.0,93,74,36,30.12,30.01,5,1,0,0.00
2013-10-4,65.6,46.2,57.6,64.0,20.7,-99.9,95,71,91,30.04,29.97,6,-241,0,0.00
2013-10-5,63.5,52.9,59.9,60.0,37.3,-99.9,94,79,86,30.08,30.02,9,-134,0,0.00
2013-10-6,80.4,68.3,60.1,71.0,64.5,58.0,97,88,70,30.02,29.75,23,6,0,0.00
2013-10-7,71.9,62.5,52.7,66.0,56.4,45.0,93,81,59,30.00,29.60,19,7,0,0.00
2013-10-8,64.4,53.3,45.1,50.0,46.0,43.0,93,78,49,30.35,30.00,9,3,0,0.00
2013-10-9,66.4,51.7,40.4,51.0,44.0,39.0,96,78,40,30.42,30.27,14,2,0,0.00
2013-10-10,64.4,51.9,43.5,50.0,46.4,42.0,95,83,55,30.28,30.15,8,2,0,0.00
2013-10-11,69.5,49.4,45.1,54.0,34.0,-99.9,96,73,48,30.15,30.09,7,-94,0,0.00
2013-10-12,74.4,56.6,40.7,53.0,45.5,37.0,96,72,28,30.20,30.11,11,2,0,0.00
2013-10-13,68.8,62.2,55.3,58.0,53.9,47.0,92,75,60,30.28,30.20,14,6,0,0.00
2013-10-14,60.5,56.9,50.1,57.0,54.2,48.0,95,91,78,30.31,30.24,12,2,0,0.00
2013-10-15,67.0,56.3,47.0,57.0,52.1,45.0,96,86,68,30.27,29.97,13,3,0,0.00
2013-10-16,62.0,54.1,56.6,57.0,39.3,-99.9,92,74,68,29.97,29.76,18,-88,0,0.02
2013-10-17,65.6,57.5,48.4,54.0,50.3,46.0,94,78,57,29.87,29.64,8,2,0,0.02
2013-10-18,59.2,53.7,49.4,52.0,45.2,40.0,94,75,51,29.90,29.68,20,4,0,0.02
2013-10-19,61.9,49.5,45.7,50.0,31.5,-99.9,87,65,51,29.90,29.62,19,-89,0,0.01
2013-10-20,54.9,44.3,42.6,44.0,29.4,-99.9,86,70,58,29.98,29.73,16,-80,0,0.03
2013-10-21,66.3,50.1,46.5,45.0,25.6,-99.9,85,53,38,29.99,29.77,15,-108,0,0.02
2013-10-22,56.8,39.7,39.1,49.0,13.6,-99.9,92,58,47,29.84,29.72,19,-175,0,0.00
2013-10-23,47.3,41.0,36.6,39.0,35.9,32.0,92,82,66,29.81,29.67,11,2,0,0.00
2013-10-24,49.7,40.3,34.2,36.0,32.8,29.0,91,77,47,29.99,29.77,14,5,0,0.00
2013-10-25,50.5,41.8,36.8,40.0,37.0,35.0,93,83,63,30.17,29.99,16,4,0,0.00
2013-10-26,43.7,14.1,41.0,37.0,-55.4,-99.9,82,24,54,30.13,29.79,7,-665,0,0.00
2013-10-27,49.1,38.1,39.7,37.0,15.1,-99.9,85,60,53,30.06,29.80,15,-133,0,0.00
2013-10-28,49.2,36.1,30.0,38.0,12.7,-99.9,86,58,51,30.39,30.02,18,-145,0,0.00
2013-10-29,47.1,35.5,24.7,32.0,26.0,-99.9,92,73,48,30.48,30.31,8,-10,0,0.11
2013-10-30,56.3,40.5,37.7,42.0,23.8,-99.9,93,69,56,30.31,30.11,7,-103,0,0.00
2013-10-31,61.4,54.2,40.1,58.0,51.2,37.0,94,89,79,30.10,29.43,21,11,19,0.00
2013-11-1,64.6,59.1,49.9,59.0,49.6,42.0,90,72,50,29.66,29.19,30,10,0,0.33
2013-11-2,50.5,33.2,38.8,47.0,4.0,-99.9,93,65,83,29.96,29.60,12,-268,0,0.07
2013-11-3,38.6,24.3,30.6,36.0,-11.8,-99.9,91,52,58,30.54,29.96,16,-306,0,0.00
2013-11-4,42.0,34.6,24.5,30.0,22.3,18.0,92,64,39,30.67,30.49,11,3,0,0.41
2013-11-5,53.7,46.2,37.8,38.0,29.9,22.0,66,54,46,30.50,30.34,21,9,12,0.16
2013-11-6,60.4,45.2,48.1,52.0,18.3,-99.9,78,56,60,30.34,29.80,31,-179,0,0.02
2013-11-7,59.0,46.7,39.8,54.0,41.2,31.0,93,81,60,29.95,29.76,15,7,0,0.00
2013-11-13,38.3,35.0,33.9,25.0,17.6,-99.9,66,57,47,30.38,30.10,13,-15,0,0.04
2013-11-14,53.2,34.1,31.7,27.0,-2.9,-99.9,54,34,27,30.12,30.02,11,-185,0,0.31
2013-11-15,52.5,45.3,36.5,30.0,24.0,19.0,54,44,32,30.12,30.05,11,4,0,0.26
2013-11-16,58.0,42.2,42.9,41.0,10.9,-99.9,70,45,44,30.24,30.06,16,-175,0,0.00
2013-11-17,58.6,18.0,50.3,54.0,-49.5,-99.9,86,27,70,30.06,29.37,24,-647,0,0.00
2013-11-18,58.6,28.7,37.9,55.0,-16.2,-99.9,90,41,51,29.86,29.36,23,-372,0,0.25
2013-11-19,38.0,30.9,31.1,28.0,8.8,-99.9,72,59,63,30.44,29.86,22,-128,0,0.00
2013-11-20,37.1,28.9,24.6,23.0,10.0,-99.9,79,58,47,30.61,30.44,8,-80,0,0.00
2013-11-21,44.3,38.4,29.2,37.0,25.7,17.0,85,61,47,30.51,30.28,21,8,0,0.00
2013-11-22,40.9,11.7,36.6,39.0,-59.8,-99.9,92,26,77,30.27,29.96,19,-702,0,0.12
2013-11-23,37.1,18.7,19.9,27.0,-21.0,-99.9,88,47,55,30.16,29.97,33,-335,0,0.00
2013-11-24,24.7,18.8,17.4,18.0,5.5,-99.9,90,73,61,30.40,30.13,23,-74,0,0.00
2013-11-25,35.3,26.6,19.5,20.0,9.8,-99.9,83,59,40,30.41,30.13,15,-46,0,0.00
2013-11-26,34.4,7.8,33.0,26.0,-71.3,-99.9,71,15,52,30.17,29.81,7,-767,0,0.00
2013-11-27,-200.0,0.0,200.0,-99.9,-99.9,-99.9,0,0,100,29.83,29.55,0,-999,0,0.00
2013-11-28,28.9,17.0,20.3,20.0,-20.7,-99.9,88,49,61,30.44,29.84,13,-324,0,0.05
2013-11-29,29.8,21.4,12.8,23.0,9.4,-99.9,91,74,59,30.76,30.44,10,-61,0,0.01
2013-11-30,32.9,22.5,10.0,22.0,8.3,-99.9,91,69,60,30.76,30.24,21,-66,0,0.00
2013-12-1,32.0,8.6,31.0,25.0,-66.2,-99.9,74,20,68,30.24,29.98,13,-723,0,0.00
2013-12-2,40.1,23.7,34.7,35.0,-14.9,-99.9,94,55,81,29.98,29.85,5,-363,0,0.07
2013-12-3,41.9,30.7,27.5,33.0,14.3,-99.9,96,71,61,30.02,29.89,5,-114,0,0.00
2013-12-4,46.7,34.4,29.0,40.0,19.5,-99.9,93,76,77,30.05,29.95,10,-113,0,0.00
2013-12-5,49.5,11.1,43.4,46.0,-66.3,-99.9,88,20,85,29.98,29.75,22,-763,0,0.01
2013-12-6,36.0,21.9,31.4,31.0,-18.4,-99.9,88,49,72,30.24,29.98,10,-359,0,0.09
2013-12-7,32.1,26.0,26.1,27.0,6.2,-99.9,86,61,55,30.55,30.22,15,-108,0,0.00
2013-12-8,29.2,22.6,21.2,24.0,-0.3,-99.9,91,57,55,30.59,30.26,12,-142,0,0.00
2013-12-9,29.8,5.8,26.1,26.0,-73.7,-99.9,91,18,85,30.25,29.85,18,-786,0,0.00
2013-12-10,26.5,14.7,21.2,21.0,-30.4,-99.9,89,42,58,30.06,29.92,16,-396,0,0.00
2013-12-11,26.1,20.2,17.3,20.0,2.0,-99.9,84,63,60,30.26,30.07,16,-101,0,0.00
2013-12-12,20.7,14.9,14.3,13.0,-9.5,-99.9,87,59,60,30.33,30.05,15,-176,0,0.00
2013-12-13,25.0,17.0,11.9,20.0,0.9,-99.9,89,71,64,30.42,30.02,18,-109,0,0.00
2013-12-14,23.7,11.8,8.1,22.0,-4.1,-99.9,93,74,64,30.49,29.79,19,-120,0,0.00
2013-12-15,24.9,18.4,16.1,23.0,-0.2,-99.9,93,75,79,29.83,29.62,22,-162,0,0.00
2013-12-16,21.8,13.6,-0.5,17.0,-1.9,-99.9,87,73,74,30.21,29.84,22,-112,0,0.00
2013-12-17,27.8,15.6,-4.1,25.0,0.4,-99.9,92,77,84,30.18,29.92,15,-123,0,0.00
2013-12-18,32.5,24.2,23.6,24.0,0.7,-99.9,93,63,64,30.07,29.93,10,-176,0,0.12
2013-12-19,44.2,31.8,28.3,31.0,11.6,-99.9,84,61,56,30.05,29.91,15,-115,0,0.14
2013-12-20,45.3,35.2,34.6,43.0,17.4,-99.9,92,74,72,30.01,29.77,11,-144,0,0.05
2013-12-21,51.5,32.5,32.0,49.0,11.2,-99.9,95,74,90,29.88,29.73,13,-196,0,0.47
2013-12-22,44.2,29.2,31.5,43.0,7.3,-99.9,96,74,86,29.97,29.58,14,-206,0,0.33
2013-12-23,42.1,27.2,29.0,39.0,0.3,-99.9,90,65,67,30.25,29.95,13,-236,0,0.01
2013-12-24,28.6,17.0,13.0,26.0,-2.2,-99.9,91,73,78,30.49,30.21,20,-163,0,0.00
2013-12-25,25.0,15.0,6.7,15.0,-0.9,-99.9,88,69,63,30.56,30.26,14,-100,0,0.00
2013-12-26,33.6,24.7,24.6,28.0,4.5,-99.9,89,63,65,30.27,30.06,14,-129,0,0.00
2013-12-27,33.2,25.2,23.2,28.0,7.4,-99.9,88,68,66,30.29,30.11,13,-122,0,0.00
2013-12-28,44.9,31.5,30.1,35.0,12.6,-99.9,91,68,67,30.10,29.95,12,-132,0,0.02
2013-12-29,44.7,33.1,30.1,38.0,15.4,-99.9,95,73,62,29.94,29.63,13,-135,0,0.17
2013-12-30,32.6,15.8,13.5,29.0,-6.5,-99.9,88,66,72,30.23,29.73,20,-178,0,0.00
2013-12-31,25.5,16.9,15.8,19.0,-2.2,-99.9,83,62,56,30.24,29.97,19,-108,0,0.00
2014-1-1,21.5,16.0,13.2,14.0,-1.4,-99.9,87,64,59,30.41,30.24,13,-99,0,0.00
2014-1-2,14.1,9.0,6.2,12.0,-4.9,-99.9,89,78,86,30.32,29.99,19,-108,0,0.00